Find Starlink 35917

NORAD ID: 66503 Int'l Des: 2025-263 Owner: SPXS Country: US Constellation: starlink operational
LEOCIRCULAR

当前视图

正在加载3D地球...

About Starlink 35917

Starlink 35917 (NORAD 66503) is a starlink constellation satellite (v2 mini) launched Nov 15, 2025 by SPXS of US. It operates in LEO, CIRCULAR orbit with a mass of 575.00 kg.

关于 Starlink 35917

正在加载描述...

即将过境

Passes for default location (London). Set your location on the main map for personalized predictions.

高度历史

Loading altitude history...

两行轨道根数

1 66503U 25263U 26194.79633875 .00015514 00000-0 57177-3 0 9994
2 66503 43.0026 358.6521 0002510 282.8493 77.2078 15.27597452 38189
Epoch: Jul 13, 2026 • Age: 10 hours

当前状态

高度 486.2 km
远地点 / 近地点 N/A
速度 7.63 km/s
星下点 37.62°N, 47.53°E
发射日期 Nov 15, 2025
运行时间 0.6 years
类型 internet

技术详情

分类 Payload
质量 575.00 kg
干质量 530.00 kg
总质量 575.00 kg
长度 0.30 m
直径 4.10 m
跨度 29.00 m
形状 Box + pan
制造商 SPXS
平台类型 Starlink V2MO
阶段状态 In Orbit
所有者/国家 SPXS/US

Most Searched